Location: Clover
(42.5131°N, 114.6874°W)
Time: 02:39:15
(UTC+00:00)

BlueWalker 3 - Visible Passes

Search period start: 19 January 2026 00:00
Search period end: 29 January 2026 00:00
Orbit: 451 x 463 km, 53.2° (Epoch: 18 January)

Date Brightness Start Highest point End Pass type
(mag) Time Alt. Az. Time Alt. Az. Time Alt. Az.
19 Jan 4.0 02:54:14 10° SSW 02:55:25 19° SSW 02:55:25 19° SSW visible
20 Jan 2.6 02:19:05 10° SSW 02:21:58 34° SSE 02:21:58 34° SSE visible
21 Jan 2.9 01:44:00 10° SSW 01:47:03 27° SE 01:48:25 21° E visible
21 Jan 4.5 03:21:02 10° WSW 03:22:11 18° W 03:22:11 18° W visible
22 Jan 3.4 01:09:02 10° S 01:11:45 21° SE 01:14:29 10° E visible
22 Jan 2.6 02:45:31 10° WSW 02:48:32 47° WNW 02:48:32 47° WNW visible
23 Jan 1.9 02:10:02 10° WSW 02:13:35 66° NW 02:14:49 37° NE visible
24 Jan 1.7 01:34:36 10° SW 01:38:09 86° NW 01:41:00 15° NE visible
24 Jan 4.3 03:13:17 10° WNW 03:14:45 17° NW 03:14:45 17° NW visible
25 Jan 3.5 02:37:35 10° WNW 02:40:32 23° NNW 02:40:52 23° NNW visible
26 Jan 3.3 02:01:54 10° W 02:05:00 27° NNW 02:06:56 17° NNE visible
27 Jan 3.1 01:26:14 10° W 01:29:28 32° NNW 01:32:43 10° NE visible
27 Jan 4.4 03:05:38 10° NW 03:06:41 13° NNW 03:06:41 13° NNW visible
28 Jan 3.9 02:29:55 10° NW 02:32:11 16° N 02:32:40 15° N visible
